METEOR 2-11 DEB, 43311

Orbit data source: Space-Track

METEOR 2-11 DEB, 43311 is space debris in LEO originally from a launch on Thu, 05 Jul 1984 UTC launched from the Plesetsk Missile And Space Complex (PKMTR). Debris objects in space refer to the collection of defunct objects orbiting the Earth. Examples of debris include non-operational satellites, rocket bodies, and fragments generated from explosions, collisions, or faulty payload assembly.

Loading next visibility...
Identifier
43311, 1984-072W
Orbit
LEO
Country
Flag of CISCIS
Related business
Manufacturer
Unknown
Mission
Spacecraft
Bus & Motor
Unknown
Mass
Unknown
Launch date (UTC)
1984-07-05 (41 years ago)
Launch vehicle
Unknown
Launch site
Plesetsk Missile And Space Complex (PKMTR)
Object type
Payload
Rocket body
Debris
Shape & HBR
Unknown shape, 0.1 m
Radar Cross Section
Small (<0.1 m²)

Expand to show TLE details & history
Last TLE update: 1 week ago

TLE from 1 week ago
0 METEOR 2-11 DEB
1 43311U 84072W   25338.28011081  .00003039  00000-0  21176-2 0  9999
2 43311  82.5276 177.3344 0028048 217.9048 142.0146 13.98191770231860
Epoch: 2025-12-04T06:43Z
TLE epoch observation values (Epoch: 2025-12-04T06:43:21.573Z)
Latitude
-0.00007°
Longitude
3.15568°
Altitude
919.099 km
Speed
7.384 km/s
True Right ascension
11h 49m 20s
True Declination
0° 00' 00"
Sunlit
Object was in daylight at epoch
Visualization orbit readout
Latitude
Unknown
Longitude
Unknown
Altitude
Unknown
Speed
Unknown
Apparent Right ascension
Unknown
Apparent Declination
Unknown
Sunlit
N/A
Visualization observer readout
Local Sidereal Time
14:32:46
Azimuth
Unknown
Elevation
Unknown
Doppler factor
Unknown
Orbital elements
Apogee altitude
917.603 km
Perigee altitude
876.791 km
Semi-major axis
7,275.334 km
Eccentricity
0.0028
Inclination
82.5276°
RAAN
177.3344°
Arg. of periapsis
217.9048°
True anomaly
142.21187°
Mean anomaly
142.0146°
Eccentric anomaly
142.11329°
Mean motion
3.49755 °/min
Orbital period
102.93 mins
BSTAR
0.0021176
Loading maneuver chart data...
Computing Atmospheric mass density...
Loading historical data...
Loading historical data...
Loading historical data...
Loading historical data...
Loading historical data...
Loading historical data...
Loading historical data...

Documentation

Showing up to 5 results
|